Location: Bad Salzschlirf
(50.3750°N, 9.3000°E)
Time: 03:28:14
(UTC+02:00)

ISS - Pass Details

Date: 06 July 2025
Orbit: 413 x 417 km, 51.6° (Epoch: 12 July)

Event Time Altitude Azimuth Distance (km) Brightness Sun altitude
Rises 02:49:46 0° 276° (W) 2,356 -0.1 -14.7°
Reaches altitude 10° 02:51:53 10° 279° (W) 1,494 -1.1 -14.6°
Maximum altitude 02:55:13 69° 3° (N) 450 -3.5 -14.4°
Drops below altitude 10° 02:58:34 10° 88° (E) 1,495 -0.7 -14.2°
Sets 03:00:40 0° 90° (E) 2,359 0.4 -14.1°
